Printer-friendly version

IAU Minor Planet Center

Minor Planet Center

MPEC 2001-F57: 2001 FO127

The following Minor Planet Electronic Circular may be linked-to from your own Web pages, but must not otherwise be redistributed electronically.


Read MPEC 2001-F56 Read MPEC 2001-F58


M.P.E.C. 2001-F57                                Issued 2001 Mar. 31, 16:22 UT

     The Minor Planet Electronic Circulars contain information on unusual
         minor planets and routine data on comets.  They are published
   on behalf of Commission 20 of the International Astronomical Union by the
          Minor Planet Center, Smithsonian Astrophysical Observatory,
                          Cambridge, MA 02138, U.S.A.

             Prepared using the Tamkin Foundation Computer Network

                              MPC@CFA.HARVARD.EDU
          URL http://cfa-www.harvard.edu/iau/mpc.html  ISSN 1523-6714

                                  2001 FO127

Observations:
     K01FC7O* C2001 03 30.37787 12 04 39.20 -01 26 09.0                      695
     K01FC7O  C2001 03 30.37961 12 04 38.11 -01 25 21.1                      695
     K01FC7O  C2001 03 30.38333 12 04 35.91 -01 23 33.7                      695
     K01FC7O  C2001 03 30.38507 12 04 34.84 -01 22 46.2                      695
     K01FC7O  C2001 03 30.39153 12 04 30.99 -01 19 43.0                      695
     K01FC7O  C2001 03 30.39326 12 04 29.94 -01 18 54.2                      695
     K01FC7O  C2001 03 30.40412 12 04 23.51 -01 13 48.4          18.7 R      695
     K01FC7O  C2001 03 30.40522 12 04 22.90 -01 13 17.1          19.3 V      695
     K01FC7O  C2001 03 30.40628 12 04 22.27 -01 12 45.9                      695
     K01FC7O  C2001 03 30.40803 12 04 21.29 -01 11 58.2                      695
     K01FC7O tC2001 03 30.42804 12 04 09.92 -01 02 34.4          20.3 V      691
     K01FC7O tC2001 03 30.43341 12 04 06.85 -01 00 01.7          19.5 V      691
     K01FC7O  C2001 03 30.44284 12 04 01.52 -00 55 37.6                      695
     K01FC7O  C2001 03 30.44318 12 04 01.34 -00 55 29.0                      695
     K01FC7O  C2001 03 30.44421 12 04 00.78 -00 54 59.7          19.6 V      695
     K01FC7O tC2001 03 30.44473 12 04 00.60 -00 54 44.4          19.7 V      691
     K01FC7O  C2001 03 30.44538 12 04 00.13 -00 54 27.1          18.9 R      695
     K01FC7O  C2001 03 30.47358 12 03 45.09 -00 41 15.6                      695
     K01FC7O  C2001 03 30.47392 12 03 44.93 -00 41 07.6                      695
     K01FC7O  C2001 03 30.47567 12 03 44.01 -00 40 17.2                      695
     K01FC7O  C2001 03 30.58510 12 02 53.65 +00 11 50.5          18.9 R      568
     K01FC7O  C2001 03 31.14762 11 59 40.82 +04 20 03.9                      695
     K01FC7O  C2001 03 31.16230 11 59 33.03 +04 26 23.0                      695
     K01FC7O  C2001 03 31.16300 11 59 32.65 +04 26 40.0                      695
     K01FC7O  C2001 03 31.18291 11 59 21.91 +04 35 13.0                      695
     K01FC7O  C2001 03 31.18360 11 59 21.53 +04 35 29.8                      695
     K01FC7O  C2001 03 31.18463 11 59 20.96 +04 35 56.7          19.1 R      695
     K01FC7O  C2001 03 31.18574 11 59 20.35 +04 36 25.8          19.5 V      695
     K01FC7O tC2001 03 31.38929 11 57 25.94 +06 01 52.0                      691
     K01FC7O tC2001 03 31.39372 11 57 23.57 +06 03 43.5                      691
     K01FC7O tC2001 03 31.39752 11 57 21.59 +06 05 16.6                      691

Observer details:
568 Mauna Kea.  Observers K. J. Meech, J. Pittichova.  Measurer D. J. Tholen.
    2.24-m University of Hawaii reflector + CCD.
691 Steward Observatory, Kitt Peak.  Observers J. A. Larsen, A. F. Tubbiolo.
    0.9-m Spacewatch telescope.
695 Kitt Peak.  Observers D. Davis, B. Gladman, C. Neese.  Measurer
    B. Gladman.  Mayall 3.8-m reflector + CCD.

Orbital elements:
2001 FO127
Epoch 2001 Apr. 1.0 TT = JDT 2452000.5                  Marsden
M 154.49867              (2000.0)            P               Q
n   1.18297710     Peri.  200.10592     +0.86833939     -0.49551239
a   0.8854251      Node   189.68164     +0.47061332     +0.83674687
e   0.1616662      Incl.    7.28026     +0.15655609     +0.23307113
P   0.83           H   27.7           G   0.15           U   7
Residuals in seconds of arc
010330 695  0.2+  0.3+    010330 691  1.0+  1.2+    010331 695  0.1-  0.4+
010330 695  0.3-  1.1-    010330 695  0.4-  0.3+    010331 695  0.2-  0.7-
010330 695  0.2+  1.1+    010330 695  0.3-  0.6-    010331 695  0.1+  0.2+
010330 695  0.1-  0.6-    010330 695  0.2-  0.2-    010331 695  0.1+  0.7-
010330 695  0.0   0.0     010330 691  1.3+  0.5+    010331 695  0.0   0.3-
010330 695  0.3-  0.0     010330 695  0.4-  0.5-    010331 695  0.0   0.3+
010330 695  0.8-  0.8-    010330 695  0.2-  1.1+    010331 691  0.1+  1.2-
010330 695  0.3-  0.5-    010330 695  0.0   0.4-    010331 691  0.2-  1.1+
010330 695  0.4-  0.8+    010330 695  0.2-  1.0+    010331 691  0.1+  0.5+
010330 695  0.2+  0.9-    010330 568  0.4-  0.0
010330 691  1.7+  0.5-    010331 695  0.4+  0.1-

Ephemeris:
2001 FO127               a,e,i = 0.89, 0.16, 7                   q = 0.7423
Date    TT    R. A. (2000) Decl.     Delta      r     Elong.  Phase     V
2001 03 22    13 57.42   -62 50.6    0.023    1.006   114.3    64.5    21.8
2001 03 23    13 37.14   -58 23.6    0.021    1.008   120.0    59.0    21.5
2001 03 24    13 19.09   -52 58.3    0.020    1.009   126.6    52.5    21.1
2001 03 25    13 03.14   -46 30.4    0.018    1.010   134.1    45.2    20.8
2001 03 26    12 49.08   -39 00.9    0.017    1.012   142.5    36.9    20.4
2001 03 27    12 36.71   -30 39.8    0.017    1.013   151.7    27.9    20.1
2001 03 28    12 25.84   -21 47.7    0.017    1.014   161.1    18.6    19.8
2001 03 29    12 16.26   -12 52.7    0.017    1.015   169.8    10.0    19.5
2001 03 30    12 07.82   -04 23.3    0.018    1.016   173.4     6.5    19.4
2001 03 31    12 00.37   +03 19.8    0.019    1.017   168.0    11.8    19.8
2001 04 01    11 53.78   +10 06.4    0.020    1.018   161.2    18.5    20.2
2001 04 02    11 47.93   +15 55.5    0.022    1.019   154.8    24.7    20.5
2001 04 03    11 42.74   +20 51.5    0.023    1.020   149.3    30.1    20.9
2001 04 04    11 38.12   +25 01.4    0.025    1.021   144.4    34.8    21.2
2001 04 05    11 34.00   +28 32.4    0.027    1.022   140.2    38.8    21.5
2001 04 06    11 30.32   +31 31.2    0.030    1.022   136.5    42.4    21.8
2001 04 07    11 27.03   +34 03.4    0.032    1.023   133.2    45.5    22.0
2001 04 08    11 24.09   +36 13.7    0.034    1.024   130.3    48.2    22.2
2001 04 09    11 21.44   +38 06.0    0.037    1.024   127.8    50.6    22.5
2001 04 10    11 19.07   +39 43.2    0.039    1.025   125.4    52.8    22.7
2001 04 11    11 16.94   +41 07.8    0.042    1.025   123.3    54.8    22.8

Brian G. Marsden             (C) Copyright 2001 MPC           M.P.E.C. 2001-F57

Read MPEC 2001-F56 Read MPEC 2001-F58


Our Web policy. Index to the CBAT/MPC/ICQ pages.


Valid HTML 4.01!